TimeICT,TemperatureF,Dew PointF,Humidity,Sea Level PressureIn,VisibilityMPH,Wind Direction,Wind SpeedMPH,Gust SpeedMPH,PrecipitationIn,Events,Conditions,WindDirDegrees,DateUTC
12:00 AM,80.6,71.6,74,29.86,2.5,NE,3.5,-,N/A,,Scattered Clouds,50,2013-11-05 17:00:00
12:30 AM,80.6,69.8,70,29.86,2.5,NNE,3.5,-,N/A,,Scattered Clouds,30,2013-11-05 17:30:00
1:30 AM,80.6,69.8,70,29.83,2.5,NNE,3.5,-,N/A,,Scattered Clouds,20,2013-11-05 18:30:00
3:00 AM,78.8,69.8,74,29.83,2.5,NE,3.5,-,N/A,,Scattered Clouds,50,2013-11-05 20:00:00
3:30 AM,78.8,69.8,74,29.80,2.5,NE,3.5,-,N/A,,Scattered Clouds,40,2013-11-05 20:30:00
4:30 AM,78.8,69.8,74,29.80,2.5,NNE,3.5,-,N/A,,Mostly Cloudy,30,2013-11-05 21:30:00
5:00 AM,78.8,69.8,74,29.80,2.5,NE,3.5,-,N/A,,Mostly Cloudy,40,2013-11-05 22:00:00
5:30 AM,78.8,69.8,74,29.80,2.5,NE,4.6,-,N/A,,Mostly Cloudy,50,2013-11-05 22:30:00
6:00 AM,78.8,69.8,74,29.83,3.1,NE,3.5,-,N/A,,Mostly Cloudy,50,2013-11-05 23:00:00
6:30 AM,78.8,69.8,74,29.83,3.7,ENE,6.9,-,N/A,,Mostly Cloudy,60,2013-11-05 23:30:00
7:00 AM,80.6,69.8,70,29.83,4.3,NE,6.9,-,N/A,,Mostly Cloudy,50,2013-11-06 00:00:00
7:30 AM,80.6,69.8,70,29.83,5.0,ENE,9.2,-,N/A,,Mostly Cloudy,60,2013-11-06 00:30:00
8:00 AM,82.4,69.8,66,29.86,5.6,NE,6.9,-,N/A,,Mostly Cloudy,50,2013-11-06 01:00:00
8:30 AM,84.2,69.8,62,29.86,5.6,NE,6.9,-,N/A,,Mostly Cloudy,40,2013-11-06 01:30:00
9:00 AM,82.4,69.8,66,29.86,6.2,NE,6.9,-,N/A,,Mostly Cloudy,50,2013-11-06 02:00:00
9:30 AM,87.8,69.8,55,29.86,6.2,ENE,6.9,-,N/A,,Mostly Cloudy,60,2013-11-06 02:30:00
10:00 AM,87.8,69.8,55,29.89,6.2,ENE,6.9,-,N/A,,Mostly Cloudy,70,2013-11-06 03:00:00
10:30 AM,89.6,69.8,52,29.86,6.2,NE,6.9,-,N/A,,Mostly Cloudy,50,2013-11-06 03:30:00
11:00 AM,87.8,69.8,55,29.86,6.2,ENE,6.9,-,N/A,,Mostly Cloudy,70,2013-11-06 04:00:00
11:30 AM,91.4,68.0,46,29.86,6.2,East,4.6,-,N/A,,Scattered Clouds,100,2013-11-06 04:30:00
12:00 PM,93.2,69.8,46,29.83,6.2,NNE,4.6,-,N/A,,Scattered Clouds,20,2013-11-06 05:00:00
12:30 PM,91.4,68.0,46,29.83,6.2,ENE,4.6,-,N/A,,Mostly Cloudy,70,2013-11-06 05:30:00
1:00 PM,89.6,73.4,59,29.80,6.2,South,4.6,-,N/A,,Mostly Cloudy,180,2013-11-06 06:00:00
1:30 PM,91.4,73.4,55,29.80,6.2,SSW,4.6,-,N/A,,Mostly Cloudy,200,2013-11-06 06:30:00
2:00 PM,89.6,73.4,59,29.80,6.2,WSW,4.6,-,N/A,,Mostly Cloudy,250,2013-11-06 07:00:00
2:30 PM,89.6,73.4,59,29.77,6.2,SW,6.9,-,N/A,,Mostly Cloudy,230,2013-11-06 07:30:00
3:00 PM,89.6,73.4,59,29.77,5.0,South,6.9,-,N/A,Rain,Light Rain Showers,180,2013-11-06 08:00:00
3:30 PM,84.2,77.0,79,29.77,4.3,South,6.9,-,N/A,Rain,Light Rain Showers,190,2013-11-06 08:30:00
4:00 PM,80.6,75.2,84,29.77,4.3,South,9.2,-,N/A,,Mostly Cloudy,180,2013-11-06 09:00:00
4:30 PM,80.6,77.0,89,29.77,5.0,South,6.9,-,N/A,,Mostly Cloudy,190,2013-11-06 09:30:00
5:00 PM,80.6,77.0,89,29.77,5.0,WNW,4.6,-,N/A,,Mostly Cloudy,300,2013-11-06 10:00:00
5:30 PM,80.6,77.0,89,29.80,5.0,SW,3.5,-,N/A,,Mostly Cloudy,230,2013-11-06 10:30:00
6:00 PM,80.6,77.0,89,29.80,5.0,WNW,3.5,-,N/A,,Mostly Cloudy,300,2013-11-06 11:00:00
6:30 PM,80.6,75.2,84,29.80,5.0,Calm,Calm,-,N/A,,Mostly Cloudy,0,2013-11-06 11:30:00
7:00 PM,78.8,75.2,89,29.83,5.0,Calm,Calm,-,N/A,,Mostly Cloudy,0,2013-11-06 12:00:00
7:30 PM,78.8,75.2,89,29.83,5.0,Calm,Calm,-,N/A,,Mostly Cloudy,0,2013-11-06 12:30:00
8:00 PM,78.8,75.2,89,29.83,5.0,Calm,Calm,-,N/A,,Mostly Cloudy,0,2013-11-06 13:00:00
8:30 PM,78.8,75.2,89,29.83,5.0,Calm,Calm,-,N/A,,Mostly Cloudy,0,2013-11-06 13:30:00
9:00 PM,78.8,75.2,89,29.86,5.0,North,3.5,-,N/A,,Mostly Cloudy,10,2013-11-06 14:00:00
9:30 PM,78.8,75.2,89,29.86,5.0,NNE,3.5,-,N/A,,Mostly Cloudy,20,2013-11-06 14:30:00
10:00 PM,78.8,75.2,89,29.86,5.0,NNE,3.5,-,N/A,,Mostly Cloudy,30,2013-11-06 15:00:00
10:30 PM,78.8,75.2,89,29.83,5.0,NNE,3.5,-,N/A,,Mostly Cloudy,20,2013-11-06 15:30:00
11:00 PM,78.8,75.2,89,29.83,5.0,NNE,6.9,-,N/A,,Mostly Cloudy,20,2013-11-06 16:00:00
11:30 PM,78.8,75.2,89,29.83,5.0,ENE,4.6,-,N/A,,Mostly Cloudy,60,2013-11-06 16:30:00